Regional Weather Roundup
Issued by NWS Newport/Morehead, NC

Current Version | Previous Version | Graphics & Text | Print | Product List | Glossary Off
Versions: 1 2 3 4 5 6 7 8 9 10 11 12 13 14 15 16 17 18 19 20 21 22 23 24 25 26 27 28 29 30 31 32 33 34 35 36 37 38 39 40 41 42 43 44 45 46 47 48 49 50

000
ASUS42 KMHX 190125
RWRMHX
WEATHER ROUNDUP FOR EASTERN NORTH CAROLINA
NATIONAL WEATHER SERVICE NEWPORT/MOREHEAD CITY NC
800 PM EST SUN FEB 18 2018

NOTE: "FAIR" INDICATES FEW OR NO CLOUDS BELOW 12,000 FEET
WITH NO SIGNIFICANT WEATHER AND/OR OBSTRUCTIONS TO VISIBILITY

NCZ015>017-031-032-045>047-102-103-190200-
NORTH COAST

CITY           SKY/WX    TMP DP  RH WIND       PRES   REMARKS
EDENTON        FAIR      44  37  77 E5        30.48R
ELIZABETH CITY FAIR      43  36  76 E8        30.48R
KITTY HAWK     FAIR      42  38  86 CALM      30.47R
MANTEO         FAIR      43  36  75 E8        30.48S

$$

NCZ045>047-081-094-103-104-190200-
CENTRAL COAST

CITY           SKY/WX    TMP DP  RH WIND       PRES   REMARKS
FRISCO         FAIR      46  39  76 NE9       30.45S

$$

NCZ095-097-098-100-101-190200-
SOUTHERN COAST

CITY           SKY/WX    TMP DP  RH WIND       PRES   REMARKS
BEAUFORT       CLOUDY    47  37  68 NE12G20   30.43S
CEDAR ISLAND   NOT AVBL
JACKSONVILLE   CLOUDY    50  36  58 E12       30.42S
PINEY ISLAND   NOT AVBL
WILMINGTON     CLOUDY    51  41  68 E12G21    30.41R


$$

NCZ011>013-027>030-043-044-078>080-089-090>093-098-190200-
COASTAL PLAIN

CITY           SKY/WX    TMP DP  RH WIND       PRES   REMARKS
AHOSKIE        FAIR      42  38  84 CALM      30.47R
CLINTON        FAIR      53  45  74 CALM      30.42R
ELIZABETHTOWN  NOT AVBL
GOLDSBORO      FAIR      51  40  67 E10       30.40R
GREENVILLE     FAIR      45  36  70 E8        30.45R
HAVELOCK       CLOUDY    50  40  68 E13       30.45
KENANSVILLE    FAIR      48  39  71 E8        30.43R
KINSTON        FAIR      48  39  71 E8        30.44R
NEW BERN       FAIR      46  38  73 E7        30.45S
RICHLANDS      MOCLDY    48  39  71 E9        30.43R
ROCKY MOUNT    FAIR      50  39  66 E9        30.42R
WASHINGTON     FAIR      43  35  71 E8        30.47R
WHITEVILLE     CLOUDY    54  43  67 E10       30.38R

$$

AMZ130-135-150-152-154-156-158-170-250-252-270-ANZ085-086-088-633-658-670-190200-
MARINE OBSERVATIONS

STATION/POSITION TIME  TEMP    WIND        PRES    WAVE   SWELL
                       AIR SEA DIR/SP/G            HT/PER HT/PER
                 (UTC) (F)     (DEG/KT/KT) (MB)    (FT/S) (FT/S)
CHESAPEAKE LIGHT NOT AVBL
64 E VA BEACH    0050   46 50   60/ 14/ 17 1032.1    4/ 6   2/ 8
DUCK             0100   44 45   70/  7/  8 1031.7
2 E DUCK         0100      44                N/A     3/ 6
OREGON INLET     0100   45 48   40/  7/ 10 1031.8
13E OREGON INLT  0048      46                N/A     5/ 6   5/ 6
HATTERAS CG      0100   47 57   60/ 11/ 15 1031.0
DIAMOND BUOY     0110   54 73   20/ 17/ 25 1030.8
CAPE LOOKOUT     0100           50/ 20/ 23 1030.5
BEAUFORT LAB     0100   47 55   40/  8/ 12 1030.6
30 SE NEW RVR IN 0108   56 66   80/ 17/ 23 1029.0
30 SE NEW RVR IN 0100      65                N/A     6/ 6
27 SE WRIGHTSVLE 0008   57 67   80/ 21/ 29 1029.1
5 SE WRIGHTSVLE  0108   52 54   70/ 17/ 25 1028.6
225 S CAPE HAT   0050   69 73   70/ 17/ 21 1026.7    6/ 6   2/10
41 SE CHARLESTON 0110   67 68   60/ 16/ 19 1026.1

$$



USA.gov is the U.S. government's official web portal to all federal, state and local government web resources and services.